Theta_e
315 315 314 314 313 313 312 312 310 305 303 301 301 304 308 308 307 308 307 307 307 306 308 310 313 315 318 320 323 325 325 327 327 327 327 326 325 324 324 325 325 324 322 321 321 324 329 328 323 322 320 320 321 322 322 325 326 324 330 334 334 336 335 332 334 328 328 332 323 318 320 320 322 322 321 324 323 323 325 326 327 329 328 328 328 327 328 326
316 315 315 314 314 313 312 312 312 309 305 302 301 304 308 308 308 308 308 308 308 307 307 309 311 314 317 319 321 323 325 326 327 327 327 326 325 324 323 324 325 325 322 321 321 323 328 326 322 322 321 321 322 323 325 326 324 325 332 333 333 336 332 326 328 324 323 326 322 321 321 320 322 322 322 325 325 324 328 328 327 328 329 329 328 327 328 327
317 316 315 314 314 314 313 312 312 311 308 304 303 304 307 309 308 308 309 308 308 308 307 307 309 313 316 318 320 322 324 325 327 326 326 325 325 324 324 323 324 324 322 321 321 322 326 326 321 322 321 322 323 324 326 327 325 324 327 332 335 332 326 323 325 324 324 324 322 323 322 320 322 322 322 324 325 327 328 328 326 327 328 329 329 327 328 328
317 317 316 315 314 314 314 312 312 311 309 306 305 305 306 308 309 308 309 309 309 308 307 307 308 312 316 318 320 322 324 325 326 325 324 324 325 324 324 323 323 323 322 321 322 321 324 325 320 320 321 322 323 324 326 327 327 325 324 332 331 324 325 326 325 326 326 324 323 323 320 320 322 322 322 323 326 329 326 325 326 326 326 327 328 328 328 328
317 317 317 316 315 314 314 313 313 312 310 307 305 306 306 307 309 308 309 309 309 308 307 308 308 310 316 319 320 321 323 326 326 324 323 323 323 324 325 324 323 323 322 321 322 322 323 324 320 319 322 322 323 325 326 326 327 326 325 327 324 322 327 327 325 327 326 325 322 319 317 320 320 320 322 323 326 328 325 324 325 325 325 325 326 327 327 328
317 317 317 317 316 315 314 313 313 312 311 308 306 306 306 307 308 308 308 309 309 308 307 308 308 310 315 319 320 322 323 325 325 324 324 323 322 323 324 325 324 323 322 322 323 323 322 322 320 320 322 322 324 326 327 326 326 328 327 324 323 323 325 326 325 326 325 323 320 317 318 319 319 320 321 323 324 324 324 325 325 325 325 325 325 326 326 327
316 316 317 317 316 315 314 314 313 313 311 308 306 306 306 307 308 308 308 308 309 308 308 308 308 310 315 319 319 322 323 323 322 323 324 324 324 323 324 324 324 323 323 323 324 324 322 321 321 320 322 323 324 324 325 325 324 328 329 325 325 325 324 326 326 326 326 324 322 320 318 317 319 322 321 321 323 323 324 324 324 325 325 325 325 325 325 325
315 316 316 316 316 316 315 314 313 313 311 308 306 306 306 306 308 308 308 308 308 308 308 308 309 310 314 318 319 321 323 322 321 322 323 324 324 325 326 325 324 324 323 323 323 323 322 321 321 320 322 323 322 323 323 325 325 326 329 326 325 325 325 327 326 326 327 326 326 323 319 319 321 320 318 320 322 322 324 324 324 324 324 325 325 325 325 325
315 315 316 316 316 316 315 314 313 313 311 309 307 306 306 306 307 309 309 308 308 308 308 308 310 310 314 317 318 320 321 320 319 320 324 324 324 325 326 326 325 324 323 323 323 324 322 321 322 320 321 322 321 323 323 325 326 324 326 325 324 325 326 327 326 326 326 326 325 323 320 323 323 319 318 321 322 321 323 324 324 324 324 324 325 325 325 325
313 315 315 316 316 316 315 314 313 312 311 309 307 305 305 305 307 308 308 308 308 308 307 308 310 310 313 317 319 319 318 319 318 318 322 324 324 324 325 326 325 324 323 323 323 325 323 321 322 321 321 322 321 322 322 324 325 324 324 324 324 324 325 326 325 326 325 324 324 323 323 323 321 318 320 323 322 321 321 322 323 323 323 323 324 324 325 325
312 313 314 315 316 315 315 314 312 312 310 309 307 305 305 305 306 308 308 309 308 308 308 308 309 311 312 316 319 319 317 318 319 319 320 321 323 324 323 325 325 324 324 324 323 324 325 322 321 321 321 322 322 322 322 323 324 324 324 325 324 323 324 325 324 325 323 324 323 321 321 320 316 316 319 322 322 322 321 321 322 323 323 323 323 324 324 325
312 312 314 315 316 315 316 314 312 311 310 309 307 305 305 304 306 308 309 309 308 308 308 307 309 310 312 315 317 317 317 319 319 321 321 320 322 323 324 324 325 324 324 324 323 323 325 324 321 321 322 323 324 323 323 323 324 324 324 327 328 325 326 324 323 324 323 324 323 319 321 320 315 316 319 320 322 322 321 321 321 321 322 323 323 323 324 324
311 312 313 314 315 315 315 315 313 311 310 308 307 306 304 305 306 308 309 309 308 308 307 307 309 310 312 315 314 313 316 319 320 322 322 321 321 323 324 324 324 324 323 323 323 323 325 326 322 321 322 323 324 325 325 323 323 325 325 327 329 328 329 325 324 324 322 323 322 320 327 329 321 317 317 319 321 321 320 320 321 321 322 322 322 322 323 324
311 312 312 313 315 315 315 315 313 311 309 307 306 306 305 305 307 308 309 309 308 308 307 307 309 311 313 314 310 310 314 316 320 322 322 322 322 323 324 324 324 324 322 323 323 323 325 327 324 320 321 324 324 325 328 328 327 327 326 327 328 329 330 327 323 322 323 323 319 321 328 330 326 320 317 318 319 319 319 320 320 321 321 321 321 322 322 322
311 312 312 312 314 315 314 314 313 311 309 307 306 305 305 305 307 308 309 310 309 308 307 307 309 312 315 314 309 309 311 314 318 320 322 323 322 323 323 323 324 324 323 322 323 324 326 328 324 320 321 323 324 327 332 332 331 331 329 329 329 329 330 329 323 319 326 323 314 319 326 326 326 322 320 320 318 318 318 319 320 320 320 320 321 321 321 321
310 311 311 311 313 315 315 314 313 311 309 307 306 305 305 306 307 309 309 310 309 308 308 309 310 312 315 315 311 310 311 313 314 316 321 322 322 323 323 324 324 324 324 322 324 325 326 326 322 320 322 323 326 330 332 331 331 332 329 329 330 329 328 331 325 318 323 324 314 317 324 328 327 321 320 322 321 320 318 319 320 320 321 321 321 321 321 321
309 310 310 311 313 314 314 314 312 310 308 307 305 305 306 307 308 309 310 310 309 309 310 311 311 311 313 313 312 311 311 311 311 313 317 320 322 323 323 324 324 324 324 323 324 324 322 321 320 320 322 324 327 329 330 329 329 330 329 328 330 331 329 329 328 320 319 324 322 318 319 325 329 322 319 321 321 320 317 319 320 319 320 320 321 321 321 321
309 309 310 312 312 313 314 314 312 310 308 306 305 305 306 307 308 310 311 311 310 310 311 311 311 312 312 312 313 313 312 310 310 311 314 318 320 322 322 323 323 323 323 321 322 321 319 318 319 322 323 325 326 327 327 327 326 327 329 329 329 331 329 329 331 324 319 323 325 322 318 319 322 321 320 320 320 318 318 320 320 318 319 320 319 320 321 321
308 308 310 312 311 312 314 314 312 310 307 305 306 306 307 308 310 311 311 311 311 311 311 311 311 312 311 311 311 313 313 311 311 311 313 316 318 320 321 323 322 321 321 320 321 320 319 319 320 323 324 324 324 325 325 326 325 325 326 328 328 329 329 331 333 326 319 322 324 323 322 319 318 319 318 319 319 318 319 320 319 318 319 319 319 320 321 321
308 308 310 312 312 312 313 313 312 309 307 306 307 308 309 309 310 310 310 311 311 310 311 311 311 310 310 310 310 312 313 313 313 314 314 315 317 319 321 321 321 320 320 321 321 320 319 321 322 322 323 322 323 324 324 327 327 326 326 326 328 329 329 329 333 328 320 323 326 323 324 322 320 321 318 318 318 316 316 317 317 319 320 320 321 322 322 322
308 308 309 311 312 312 313 313 312 309 307 307 307 308 309 309 310 310 309 310 311 310 311 311 310 310 310 312 311 311 313 314 314 315 315 315 317 319 320 320 319 320 320 320 321 320 320 323 323 321 322 321 322 322 324 326 326 327 328 328 329 329 328 327 331 331 321 322 327 324 324 324 321 322 320 318 319 316 315 315 317 319 320 320 321 322 323 324
308 308 309 310 312 313 313 313 311 308 307 307 307 308 308 308 309 310 309 310 311 311 311 311 312 311 311 312 313 311 313 315 316 316 316 317 318 319 319 319 319 320 320 320 321 322 322 323 322 321 321 321 321 321 322 324 324 325 326 328 329 327 328 328 329 330 323 322 329 327 325 324 322 321 320 318 319 318 318 318 318 320 320 319 320 322 323 325
307 308 309 310 312 313 313 312 310 308 307 307 307 307 307 308 309 309 309 310 310 311 311 312 313 313 312 312 313 312 313 315 316 318 318 318 319 319 319 320 320 320 319 320 322 323 324 323 321 321 321 321 322 321 321 323 323 324 324 326 327 327 328 329 328 327 324 323 327 327 325 324 323 322 320 319 318 318 319 320 320 320 320 321 321 323 324 325
307 308 309 309 311 313 313 311 309 308 307 306 306 306 307 308 309 309 309 309 310 310 311 311 312 313 313 313 313 313 314 314 314 317 318 318 319 319 319 320 320 320 319 319 321 323 324 323 321 321 322 322 322 321 321 322 322 322 324 323 325 329 329 329 329 325 323 323 321 323 326 326 325 324 322 321 319 318 318 318 318 318 319 322 321 322 324 325
307 308 309 310 311 313 312 310 309 308 307 306 306 306 307 308 308 309 308 309 310 309 310 311 311 312 313 313 312 313 315 314 314 315 315 318 319 318 319 319 320 321 319 319 320 321 322 322 321 322 323 322 322 322 321 322 322 322 323 322 324 328 328 328 328 323 324 328 323 324 330 329 327 329 326 324 324 322 319 317 318 318 319 320 320 320 322 324
307 308 308 310 312 312 311 309 308 307 307 307 306 306 307 308 309 308 308 310 309 308 309 310 311 311 312 312 312 313 315 314 315 316 315 316 317 318 319 319 319 320 319 319 319 320 320 321 321 322 322 322 322 322 321 321 323 323 322 322 323 325 327 327 326 325 328 331 326 324 330 330 329 332 330 326 326 325 321 319 318 319 320 320 320 321 322 324
307 308 308 309 312 311 310 309 307 307 308 308 306 307 308 308 309 308 308 309 308 308 309 310 310 311 311 312 312 312 313 313 314 316 317 316 317 318 318 319 319 319 319 319 320 321 319 319 322 322 322 323 323 322 322 321 322 323 323 323 324 324 325 325 325 327 327 327 326 322 324 328 328 327 330 330 329 327 324 322 319 318 319 320 322 323 323 325
308 308 308 310 312 311 309 308 307 307 308 306 307 307 308 308 308 308 308 308 308 308 309 310 310 310 311 312 312 312 312 313 314 315 316 317 317 316 315 318 320 320 319 319 322 323 320 319 321 321 322 323 323 322 322 321 322 325 325 325 324 323 325 326 326 327 325 325 326 322 321 326 325 324 330 332 329 328 325 324 321 317 318 320 323 324 325 326
308 308 309 311 311 310 308 307 306 307 307 306 307 307 308 308 307 308 308 308 308 308 308 310 310 309 311 311 311 311 311 312 313 314 314 315 315 314 314 315 316 319 320 319 322 323 321 320 319 320 322 322 322 322 323 323 323 324 325 326 325 324 326 328 328 328 325 325 326 324 324 326 324 323 328 329 326 324 324 324 322 318 318 321 323 327 327 326
307 308 309 312 310 308 308 306 306 307 307 306 307 307 309 308 306 308 309 308 308 308 308 309 309 309 311 311 311 311 311 311 311 312 312 312 312 311 313 313 310 314 318 317 319 321 320 319 318 319 321 320 321 322 322 323 322 322 324 326 327 325 325 326 327 327 327 327 326 324 324 325 325 323 323 325 324 322 323 324 323 319 317 320 323 327 327 326
307 307 310 311 309 307 308 307 307 307 306 307 308 307 307 307 306 308 308 307 309 309 309 309 309 310 311 312 312 311 310 310 310 311 312 312 311 310 313 314 311 313 315 315 317 319 319 319 319 319 318 319 321 322 322 322 322 323 325 327 327 325 325 325 325 325 328 329 327 325 323 324 325 323 321 323 322 323 324 324 325 322 317 318 323 326 327 326
307 309 310 310 308 306 307 307 307 307 306 307 308 306 306 308 308 308 307 307 309 310 310 309 310 311 311 312 312 311 310 310 310 312 312 312 312 311 313 315 315 315 316 316 317 319 319 319 321 320 318 318 321 322 323 321 322 324 326 327 327 326 326 328 327 326 328 328 326 324 323 323 324 323 323 324 323 324 323 320 324 322 317 319 323 325 326 326
309 310 310 309 307 306 306 306 307 307 307 307 307 306 306 308 308 307 307 308 309 309 309 310 310 311 311 311 312 311 311 311 311 312 312 312 313 312 313 313 314 316 317 317 318 320 320 320 321 321 320 320 320 322 323 322 322 324 324 326 327 327 328 330 329 328 328 328 325 324 325 325 325 322 323 324 322 322 320 318 320 319 319 321 323 325 326 326
311 310 309 308 306 305 306 307 307 307 308 308 307 306 308 308 308 307 307 307 308 309 309 310 310 311 311 311 312 311 311 311 311 312 312 312 312 313 313 313 312 314 316 316 317 319 321 321 321 321 321 320 320 321 322 322 322 323 323 324 325 326 327 328 328 328 328 327 323 324 326 326 325 323 324 321 317 317 319 319 320 320 322 323 323 325 325 325
312 309 308 308 306 305 305 306 307 307 308 307 307 307 308 308 308 307 307 307 308 309 310 310 310 311 311 311 311 311 310 311 310 311 312 312 312 312 313 313 312 313 314 316 317 317 320 322 322 321 320 320 320 320 320 321 323 323 323 324 325 325 324 326 328 327 327 327 324 323 327 327 324 323 323 320 317 316 316 317 318 319 321 321 321 322 324 325
310 308 307 307 306 305 305 306 307 307 308 307 307 307 308 308 308 308 307 307 309 310 310 310 310 312 312 311 311 310 309 309 310 311 311 311 312 312 312 313 312 312 313 315 316 316 319 322 321 320 320 320 320 320 319 321 323 323 323 325 325 324 323 326 328 325 325 328 327 325 326 326 323 322 322 321 321 321 319 317 314 315 318 319 318 320 322 323
309 307 306 306 306 306 305 306 307 308 307 307 307 307 308 308 309 309 307 308 310 309 310 311 310 311 312 311 311 311 309 309 310 310 310 311 312 311 311 312 312 312 313 314 315 315 316 320 320 319 321 321 318 320 320 320 322 324 324 324 323 322 322 323 325 326 326 327 327 326 327 325 324 325 325 323 322 321 324 325 318 314 315 316 317 320 322 323
307 306 306 306 306 306 306 307 307 307 307 307 308 308 308 307 306 307 308 308 309 309 310 312 311 311 312 312 311 310 310 310 310 310 310 310 311 311 311 311 311 311 312 312 314 314 314 317 319 319 321 321 319 321 321 320 321 320 320 322 323 323 324 323 324 327 327 326 327 326 326 324 324 324 325 325 325 322 322 325 325 319 315 314 317 320 321 323
306 306 306 305 306 306 307 308 307 307 306 307 308 308 309 308 305 306 308 308 309 309 310 310 310 310 311 310 311 310 309 310 310 311 310 310 310 310 310 310 310 310 310 311 313 313 313 315 317 318 319 320 320 321 322 322 321 316 316 321 323 323 324 324 324 325 327 327 326 327 327 325 323 321 321 323 325 325 323 321 323 321 316 315 317 319 321 322
305 305 306 306 306 307 308 308 307 307 307 307 308 307 308 307 304 305 308 309 308 308 309 310 309 310 311 310 311 310 309 310 310 310 310 309 310 309 308 309 311 310 309 311 313 313 313 314 315 316 318 320 320 320 321 323 322 320 319 322 323 322 323 324 324 324 326 327 326 327 327 325 324 321 321 321 321 323 325 322 321 318 315 317 319 320 322 323
305 305 305 306 306 307 307 307 306 307 307 307 308 306 306 306 305 306 307 307 307 306 307 310 309 309 310 310 310 310 309 310 309 309 309 309 309 310 309 308 309 310 309 311 312 312 313 314 314 315 316 318 319 318 318 319 320 320 320 321 324 324 322 324 325 324 325 325 325 327 326 327 333 330 322 321 322 322 324 323 322 317 315 318 320 321 323 322
305 304 304 305 307 306 306 306 305 306 307 307 306 306 306 306 305 306 305 305 306 305 305 308 310 309 310 309 310 310 309 310 310 309 309 308 308 310 309 307 308 309 309 311 312 311 313 314 314 313 314 316 316 315 316 315 315 316 316 318 322 323 322 323 324 325 325 325 324 327 326 327 334 334 325 323 322 319 318 319 319 318 317 319 321 321 322 321
303 303 303 305 306 306 307 306 305 305 305 305 305 305 305 306 306 307 306 305 306 305 306 308 308 307 309 309 310 309 309 309 310 309 309 309 308 308 307 308 309 309 310 311 311 310 311 313 313 313 313 314 314 315 315 313 312 313 314 315 317 321 323 322 322 324 325 325 324 327 326 324 330 336 329 321 317 314 314 315 316 316 317 319 320 319 319 318
301 302 303 305 307 307 307 306 306 306 304 303 305 304 303 304 305 307 306 305 305 305 308 310 307 306 308 308 309 309 309 309 310 309 310 309 307 307 308 309 309 310 310 310 311 311 311 313 313 313 313 312 312 313 313 313 312 313 314 314 313 317 321 321 322 324 324 324 324 326 326 324 331 339 326 316 317 317 314 313 314 314 316 318 319 318 317 317
302 302 302 304 306 306 305 304 305 306 304 304 305 304 304 304 303 304 306 305 303 304 306 307 305 305 307 307 308 308 308 308 309 310 310 310 308 306 307 309 309 309 310 310 310 310 311 313 312 312 312 311 310 311 312 314 315 314 315 314 312 314 318 320 322 323 322 324 324 324 325 323 326 331 322 316 319 318 313 311 311 313 315 316 317 317 316 316
304 303 301 302 303 303 302 302 303 305 305 305 305 304 305 305 302 302 304 303 303 303 303 302 303 306 308 307 308 308 308 308 308 308 309 309 309 307 306 308 309 309 310 310 310 310 312 313 312 311 311 311 310 313 315 317 319 317 317 316 315 315 317 319 322 323 322 324 323 323 324 323 323 324 323 320 318 316 316 314 309 310 314 316 316 317 316 316
304 303 302 302 302 302 302 302 303 304 304 305 305 304 305 305 303 302 303 303 303 303 303 303 304 307 308 307 308 308 307 308 307 307 308 309 308 307 306 307 308 308 309 310 310 310 311 312 312 311 311 311 311 313 314 316 320 319 318 318 318 317 317 318 321 322 321 323 324 323 323 324 323 321 322 322 319 318 319 315 309 309 314 316 316 316 315 316
303 302 301 302 303 303 303 303 303 304 305 305 305 305 305 305 304 304 303 302 301 302 306 306 305 306 307 307 308 308 307 308 306 306 308 308 308 307 306 307 307 307 309 310 309 309 311 311 312 312 312 311 311 312 313 314 316 316 316 316 317 317 316 315 316 316 317 319 321 321 321 322 322 320 320 321 319 318 318 316 313 312 314 314 313 314 315 316
301 301 300 301 303 303 303 303 303 304 304 305 305 304 304 305 305 304 303 303 302 302 306 308 306 305 307 307 308 308 307 308 307 306 306 307 308 307 307 308 306 305 307 310 309 308 310 312 311 311 312 312 311 312 312 312 313 313 313 314 314 314 315 314 314 313 313 314 316 316 317 318 319 320 320 319 316 315 313 313 312 311 312 312 312 312 314 315
301 302 301 301 301 302 302 302 303 303 304 305 305 304 304 304 304 304 302 304 305 304 304 307 306 304 305 306 307 308 307 308 308 307 306 307 308 307 307 308 307 305 306 309 308 306 309 312 311 310 311 311 310 311 311 312 312 312 312 312 313 313 313 313 313 313 313 313 314 314 315 317 317 318 318 315 313 314 314 311 310 311 311 311 312 313 315 316
303 302 302 302 301 302 302 302 303 304 303 304 304 304 304 304 303 303 302 301 302 304 305 306 306 304 303 304 305 306 306 306 307 306 305 306 307 307 307 306 306 306 306 307 307 306 307 310 311 311 312 312 311 311 311 311 311 311 311 312 312 313 313 313 313 313 313 314 314 315 316 317 318 318 317 314 312 315 316 310 308 312 313 312 313 314 316 316
302 302 302 303 301 301 302 302 303 304 304 304 304 303 304 303 302 304 304 301 299 302 304 304 304 304 304 305 306 306 304 304 305 304 305 306 305 305 305 305 304 306 306 306 306 306 307 308 309 310 312 313 313 312 311 311 312 312 312 311 311 312 312 313 313 313 313 314 315 316 316 317 319 320 318 318 317 318 315 310 308 311 313 312 312 313 314 315
Wind_Speed
41 41 39 38 36 35 34 33 32 32 32 33 34 32 31 30 30 29 29 28 28 28 29 29 27 26 26 24 23 23 22 24 26 29 32 36 36 33 33 33 30 27 26 20 14 12 14 15 14 14 14 12 10 10 9 6 6 5 2 2 2 3 4 4 6 6 3 2 3 3 2 4 3 6 8 6 8 11 11 17 16 15 20 15 9 7 7 13
42 42 41 40 38 37 35 34 33 32 33 33 33 33 32 30 30 30 29 29 28 28 28 29 28 26 25 24 23 22 22 23 26 33 37 36 34 33 33 33 32 29 26 22 18 14 15 17 16 15 14 11 9 8 8 7 8 6 3 2 4 4 5 7 8 8 5 4 5 4 3 4 6 5 8 6 6 10 9 14 16 15 20 20 15 11 10 13
43 43 43 41 40 39 36 35 34 33 33 33 33 34 33 31 31 31 30 29 28 28 27 27 28 27 25 24 23 21 21 22 28 38 40 36 34 33 32 32 32 30 27 24 20 17 17 18 17 15 14 12 10 10 9 7 7 7 4 2 6 6 5 7 10 10 10 8 8 10 7 6 9 7 9 7 6 7 10 14 15 18 23 23 20 16 13 15
45 43 43 43 42 40 38 36 35 34 34 33 33 33 34 33 31 31 31 29 28 27 26 26 27 27 25 23 22 21 19 18 31 42 38 36 35 33 32 32 32 29 28 25 21 19 18 19 18 16 14 11 10 11 8 9 8 5 6 5 6 5 4 9 12 12 13 11 10 11 7 8 12 9 11 10 5 5 14 23 23 24 25 23 23 20 17 17
48 46 44 43 43 41 39 37 36 35 34 34 34 33 35 35 33 32 31 30 28 27 27 25 26 27 25 23 22 21 15 10 20 31 34 35 35 34 33 31 31 30 28 26 23 20 18 20 17 15 13 7 7 7 6 13 12 4 6 11 9 7 4 9 10 10 12 11 10 9 6 9 9 8 15 15 9 10 20 28 28 27 24 21 22 22 21 20
52 50 47 44 43 42 40 39 37 36 34 34 34 34 35 35 34 33 32 31 29 27 26 25 25 26 25 23 22 21 18 9 3 6 18 27 31 34 33 31 31 30 29 27 24 22 19 18 15 14 11 5 8 7 6 16 14 5 6 11 13 11 9 9 8 8 9 8 8 6 5 8 6 7 15 20 19 20 20 21 24 26 24 21 21 23 23 23
53 53 50 47 45 44 42 39 38 36 34 33 33 34 35 35 35 34 33 31 29 28 26 25 25 25 25 23 23 22 26 26 7 9 4 6 21 32 31 30 32 32 31 30 28 24 20 18 17 16 10 4 8 8 9 16 15 8 5 7 13 16 16 17 15 14 13 12 13 10 7 8 6 5 9 17 25 26 20 15 16 19 22 22 22 24 25 23
54 54 52 50 48 46 44 41 40 37 34 34 33 34 35 36 35 34 34 32 30 28 26 26 24 25 26 24 24 23 32 43 28 5 6 8 4 23 30 31 34 36 34 32 31 27 23 21 21 17 9 5 7 8 11 11 9 8 6 8 12 14 18 20 18 17 18 18 18 14 12 15 15 9 8 16 23 23 22 20 16 13 17 22 24 25 25 25
53 54 53 52 50 48 46 44 42 39 35 34 33 34 35 37 36 34 33 32 31 28 27 26 25 26 26 26 24 21 33 45 40 27 17 10 8 9 26 33 36 37 35 33 32 30 27 24 24 19 8 9 10 9 13 10 6 9 13 14 11 13 17 18 17 16 17 17 15 10 11 21 21 11 11 22 24 20 21 22 21 17 15 19 23 26 26 27
52 52 53 53 51 50 48 46 43 40 37 34 33 34 35 37 36 35 34 32 31 29 28 26 26 27 26 28 23 18 29 35 37 40 35 27 19 9 14 28 34 36 35 34 33 33 32 26 25 23 10 9 13 10 13 11 5 9 18 20 17 15 16 16 15 16 14 13 13 9 10 18 15 6 9 17 18 19 20 20 22 22 20 20 21 25 27 28
53 52 53 55 53 51 50 48 45 42 39 35 34 34 34 37 37 35 34 32 31 29 28 27 27 28 27 29 25 20 26 27 29 37 37 34 29 18 11 18 29 34 34 34 35 35 34 28 23 22 10 5 9 7 11 12 7 8 14 14 15 15 16 15 13 14 11 7 12 10 9 14 5 5 12 13 13 16 19 18 20 22 23 23 22 24 27 29
52 52 53 56 55 52 50 47 45 43 40 36 34 34 34 36 37 35 34 32 31 28 28 28 27 30 29 29 33 32 26 22 21 24 27 31 33 27 15 13 23 32 33 33 35 34 34 30 24 21 10 3 6 3 9 15 11 9 9 5 8 9 11 15 14 16 12 5 10 6 6 9 5 11 16 12 15 17 16 17 19 21 22 23 24 24 26 28
52 52 52 55 56 54 51 48 46 44 41 38 34 35 35 36 37 35 34 32 30 29 28 28 28 31 28 26 36 41 30 22 19 15 16 24 30 30 22 16 16 24 31 32 33 32 33 31 27 24 15 5 6 4 4 8 10 7 6 2 5 7 7 12 14 12 9 8 10 6 4 8 7 18 19 12 16 16 16 18 19 20 21 22 24 25 26 27
53 53 53 55 57 56 52 49 47 44 42 38 35 35 35 36 36 35 34 31 30 28 27 27 29 30 27 28 35 38 36 30 22 14 14 22 29 31 27 21 15 18 27 31 32 31 31 31 26 22 17 10 5 4 1 1 4 3 2 2 4 6 5 6 13 11 7 8 13 11 6 9 6 14 17 15 17 17 19 21 21 22 22 23 25 25 27 27
54 55 53 53 57 57 53 50 47 45 43 39 35 35 35 36 35 34 32 31 29 28 28 28 30 28 19 25 33 33 36 35 29 21 16 19 27 31 29 24 19 18 22 29 33 30 29 30 26 17 12 11 7 3 1 3 1 1 4 5 4 7 4 2 8 15 12 7 12 13 5 7 9 14 16 17 18 18 22 25 24 25 25 26 27 27 28 28
55 55 52 52 57 57 53 52 48 45 43 38 35 35 36 35 34 34 31 30 28 26 28 28 31 27 13 14 26 30 31 33 35 31 21 17 23 28 27 23 20 20 22 26 31 29 27 28 25 18 10 8 6 4 2 1 3 3 7 8 5 7 6 3 3 12 16 8 8 11 5 2 6 11 14 17 21 22 24 27 27 28 29 29 30 31 32 32
54 54 51 52 56 57 54 52 48 46 42 38 36 35 36 34 33 33 30 29 28 29 32 29 30 27 13 11 19 26 32 35 36 35 31 23 21 24 24 21 20 21 22 23 27 26 25 23 17 12 9 5 4 5 4 7 9 6 6 7 5 5 6 4 2 6 12 7 6 9 7 5 7 10 10 11 17 21 24 28 29 28 29 31 32 33 35 35
55 53 51 52 55 58 55 51 49 45 42 39 36 36 35 32 32 31 30 32 30 28 26 25 26 17 12 21 26 26 32 35 34 35 36 30 25 23 21 21 21 21 20 17 20 21 18 16 12 6 5 5 5 8 11 15 12 8 7 7 6 4 4 5 2 4 8 7 7 8 8 9 11 15 17 16 14 16 23 28 28 25 26 29 31 33 35 37
55 53 53 52 54 58 56 53 49 45 43 39 36 36 35 32 32 30 31 34 28 19 14 21 27 16 11 26 34 28 25 29 30 31 34 32 29 25 20 21 21 22 18 9 12 20 16 9 8 7 8 11 13 16 17 11 6 8 9 8 7 5 5 4 3 5 9 6 8 10 10 9 12 17 19 23 22 19 23 25 24 24 26 28 29 32 34 37
54 54 54 52 53 57 56 53 49 46 44 41 41 39 32 26 19 15 25 34 35 28 18 25 38 30 13 11 22 26 20 19 23 25 29 31 29 26 21 19 19 18 13 7 8 18 19 8 6 11 14 19 19 18 15 6 2 4 6 6 7 6 7 5 4 6 7 6 8 11 12 11 14 16 17 23 24 19 20 21 22 26 28 29 30 31 33 35
53 54 54 53 55 58 57 55 50 46 45 45 47 41 34 32 17 12 25 28 37 40 21 20 36 35 17 3 8 24 20 12 18 24 25 29 30 24 18 17 12 8 11 13 9 13 17 10 10 18 21 21 18 15 14 11 8 4 4 4 6 7 7 5 6 6 5 5 6 7 11 13 13 14 17 20 16 15 20 22 24 29 31 31 31 32 33 34
52 53 54 55 57 60 59 56 50 47 47 47 49 43 41 46 31 22 28 17 22 38 25 19 28 30 24 10 5 19 20 12 16 24 24 28 31 22 16 14 8 4 9 13 8 8 10 8 16 25 20 16 15 15 15 15 15 8 3 3 4 5 3 3 4 4 4 4 5 4 8 12 11 13 17 18 16 17 25 28 28 31 33 32 33 35 38 38
53 52 53 57 60 61 59 56 50 48 51 50 52 48 43 47 34 22 25 12 9 28 26 18 21 28 28 16 9 18 19 13 14 22 27 28 30 26 18 11 8 8 9 9 9 9 9 11 23 23 13 13 14 15 16 13 12 10 6 5 4 2 3 3 4 3 4 4 3 3 7 9 8 10 13 19 21 20 25 31 32 33 33 35 37 38 40 41
53 52 53 58 61 61 59 55 50 50 53 51 53 50 39 41 34 21 19 8 2 17 26 22 18 24 27 17 14 18 18 17 18 24 30 30 28 24 17 10 10 10 8 11 13 11 10 12 19 15 10 16 18 15 15 11 10 11 10 10 6 3 4 4 2 2 3 3 2 2 7 11 11 11 11 15 18 19 24 28 29 33 36 38 39 39 40 42
53 52 54 57 59 62 60 53 51 52 53 51 50 47 38 38 33 21 15 5 4 7 18 23 17 18 26 20 16 18 14 14 20 26 33 36 31 19 13 14 12 9 10 14 11 9 10 8 12 14 14 18 17 12 14 12 9 10 12 14 11 6 3 2 1 1 1 5 3 3 5 12 8 10 13 11 11 15 19 22 26 34 36 38 40 41 43 44
53 53 54 56 59 63 58 50 53 53 51 51 49 45 40 36 31 23 12 4 2 4 8 18 17 15 23 22 20 19 9 8 17 27 33 37 35 23 12 11 8 8 12 11 6 5 7 6 11 16 18 16 12 10 13 13 9 10 12 14 13 8 6 4 1 1 3 5 4 3 7 10 5 7 9 8 12 15 14 15 22 31 34 36 40 43 44 46
53 54 55 57 61 64 57 50 52 53 51 51 49 45 38 33 31 24 12 0 3 7 8 12 14 14 17 19 24 19 4 9 16 22 32 35 35 26 13 9 7 9 10 6 4 4 7 10 9 13 17 12 11 13 14 15 11 10 7 10 12 13 11 7 3 4 3 2 4 1 2 7 9 7 6 8 11 13 13 13 16 24 31 35 39 44 46 47
51 54 56 59 64 66 59 53 54 56 55 51 49 45 36 34 33 21 8 3 4 8 7 10 14 15 15 18 29 20 3 11 12 12 28 33 29 20 9 10 11 10 12 9 6 5 9 15 14 14 15 10 13 15 13 16 12 6 8 12 13 13 8 5 5 6 2 2 5 4 2 5 13 7 6 8 11 14 16 15 13 19 29 36 40 44 47 47
50 52 58 63 66 64 57 53 56 57 52 48 48 44 36 38 31 13 2 3 3 4 5 12 13 13 17 17 25 23 8 8 7 6 20 25 20 12 5 9 7 6 13 11 9 6 5 17 23 16 11 10 14 12 10 15 10 5 11 10 7 8 7 7 6 5 2 2 10 8 4 5 14 9 6 7 11 17 16 11 12 19 29 37 41 43 46 46
50 52 59 66 66 62 51 47 51 51 46 46 48 45 42 37 20 6 6 4 3 3 6 14 14 13 18 12 11 18 10 4 5 8 12 13 12 7 4 6 2 1 5 5 9 10 3 12 19 12 10 11 8 7 12 16 10 8 9 5 6 6 6 6 4 4 5 7 11 10 9 8 12 14 9 9 12 13 11 8 8 15 27 36 40 41 44 45
51 54 61 66 66 61 52 46 49 50 47 47 48 47 39 24 8 4 8 4 4 4 6 9 12 14 18 12 7 13 8 3 7 10 7 6 6 4 3 5 3 2 1 1 6 11 6 6 6 8 17 12 5 5 11 11 11 10 6 5 5 3 3 3 2 5 7 8 11 14 14 13 12 15 7 10 13 11 10 11 8 10 21 33 40 41 43 44
51 56 64 66 63 59 53 50 52 53 50 50 52 45 26 10 4 6 5 4 4 6 7 9 11 13 19 17 11 11 9 4 6 9 7 5 4 4 5 5 4 4 5 2 5 7 8 8 4 7 18 16 9 7 4 3 7 8 5 8 8 4 3 5 5 6 7 9 11 15 15 12 14 19 11 8 10 7 7 9 9 14 22 31 39 40 41 43
54 58 65 66 61 55 49 49 53 53 52 55 50 33 12 5 8 9 7 4 3 4 8 11 12 12 16 15 10 10 9 4 4 5 5 5 5 5 6 4 2 1 3 4 6 5 5 9 8 6 9 16 14 9 6 4 7 9 7 8 9 6 5 7 7 6 7 8 6 7 11 8 10 16 15 14 15 13 16 16 13 16 22 28 34 36 38 39
58 61 65 63 59 54 47 47 53 52 54 55 39 17 8 7 8 12 11 5 2 2 7 11 12 11 13 12 9 10 8 3 5 6 5 5 4 4 5 4 3 1 2 3 5 6 7 8 10 9 7 15 17 12 12 10 9 11 10 8 8 6 6 7 6 7 7 3 2 4 8 8 9 8 3 7 9 13 23 27 21 19 23 28 31 33 36 37
62 63 62 56 55 53 48 49 52 53 56 47 22 9 10 8 8 12 10 4 2 3 7 12 13 12 11 8 8 10 5 2 7 7 5 6 6 6 6 6 7 5 2 3 2 4 8 6 6 13 13 17 17 14 13 11 7 7 7 7 9 9 8 6 3 4 4 2 2 5 4 3 8 11 5 5 4 2 10 20 21 21 24 26 30 33 36 36
63 62 56 50 52 51 50 52 51 55 56 35 11 8 10 6 5 7 7 5 5 8 11 12 10 9 8 4 6 10 3 2 8 6 3 7 7 7 7 5 8 8 5 5 0 1 6 4 2 10 14 15 18 16 14 12 7 3 5 9 7 5 7 7 5 1 2 5 5 5 6 3 6 15 13 14 13 3 3 8 13 19 23 24 28 32 34 36
59 56 49 46 49 50 52 54 53 58 51 23 8 9 6 3 3 4 6 9 10 13 13 9 7 8 8 4 6 11 6 3 7 5 3 5 5 7 8 5 9 14 12 9 3 1 3 3 3 5 11 16 21 20 15 16 13 6 7 12 5 2 2 3 5 3 4 8 6 6 11 8 6 11 7 9 16 13 8 7 9 16 22 25 30 34 37 39
53 50 44 45 50 51 54 55 55 55 38 14 10 8 2 2 2 3 10 13 13 14 10 6 5 6 8 7 6 11 10 6 7 6 4 4 4 8 11 6 7 15 18 16 8 1 2 4 4 4 7 9 13 13 9 14 15 5 3 9 7 2 5 5 4 4 5 7 7 9 12 9 10 12 7 6 12 13 11 10 11 13 17 24 32 38 43 44
52 42 31 42 52 52 55 56 55 46 22 9 13 8 2 3 1 5 18 18 11 11 9 5 5 4 6 8 7 10 11 8 8 7 5 3 3 7 12 8 6 12 17 16 9 1 2 5 5 2 2 2 4 7 7 10 10 1 4 2 4 3 7 6 4 3 3 6 7 8 9 7 10 15 16 13 11 9 10 12 12 12 19 27 32 37 42 44
48 26 17 42 54 53 58 56 45 28 9 7 11 5 2 4 1 8 21 19 7 4 6 6 6 7 7 7 8 9 8 8 9 6 5 6 4 4 8 10 6 7 13 14 8 3 3 5 7 3 1 1 2 5 8 11 11 7 3 3 5 4 2 1 4 5 5 7 7 8 10 8 7 10 14 16 12 8 10 11 11 13 21 30 34 37 41 42
39 12 12 45 55 54 57 41 22 11 5 7 7 2 3 5 4 7 12 11 5 2 2 7 8 8 8 9 9 8 7 7 8 6 5 7 6 3 7 11 8 8 10 9 7 6 3 4 9 7 2 4 6 4 3 5 5 5 6 6 8 10 6 4 7 7 6 6 5 6 9 8 6 6 8 11 11 9 11 12 10 15 26 34 39 42 44 45
27 5 15 47 54 56 48 19 5 6 4 7 6 4 5 6 6 8 6 5 5 2 2 4 5 6 8 9 9 11 9 7 9 9 6 9 9 5 5 10 13 14 11 6 7 8 4 2 6 9 7 8 7 3 0 2 4 1 3 4 6 9 10 10 10 7 6 7 5 3 7 8 5 4 6 9 9 10 15 16 13 18 29 37 42 45 43 43
16 10 23 47 55 56 36 7 3 6 1 4 8 6 5 6 5 8 7 3 3 2 2 2 1 3 4 4 7 12 10 6 9 10 7 7 7 4 5 12 16 14 9 5 4 4 3 2 4 6 6 7 4 2 1 1 4 1 4 4 6 8 10 11 8 4 4 9 9 6 9 11 6 4 5 5 6 8 13 17 16 18 25 32 37 37 34 31
20 20 25 41 52 50 25 3 7 9 3 5 8 4 3 4 4 9 8 4 3 3 4 3 2 2 3 3 6 12 10 5 7 8 4 5 5 3 8 18 20 12 7 6 7 8 5 4 5 6 6 7 6 5 4 1 3 4 6 8 9 10 12 9 3 2 4 8 10 10 11 10 6 5 4 4 7 8 8 14 17 17 22 29 32 30 26 23
22 17 14 26 40 36 14 2 8 10 8 9 8 5 4 4 2 8 9 6 3 3 4 3 3 3 4 3 5 8 7 3 5 7 3 3 4 1 7 20 21 12 8 10 13 11 6 3 6 8 8 10 10 9 6 3 4 4 5 11 15 15 16 11 3 6 9 9 11 11 10 11 9 7 7 6 6 7 8 13 15 17 24 30 30 29 28 24
12 7 6 10 17 16 5 5 9 8 8 12 8 5 7 4 2 4 7 5 3 4 4 1 3 4 5 6 7 7 6 2 2 6 5 4 4 0 5 16 18 13 10 12 15 11 3 2 7 9 10 11 10 7 3 2 4 4 5 9 12 14 17 14 8 8 9 8 10 10 9 14 16 13 12 9 6 6 8 9 12 17 24 28 30 31 30 25
6 3 4 3 4 6 4 5 8 6 8 13 8 5 8 7 3 3 3 2 5 6 3 2 3 4 7 11 9 6 6 3 3 7 8 5 2 1 4 8 10 11 10 10 13 9 1 4 9 11 13 13 10 5 1 2 4 7 7 6 6 6 8 10 9 7 6 7 11 10 11 17 20 20 19 13 6 6 7 7 11 17 21 24 27 28 28 26
5 5 4 4 3 3 3 6 8 7 9 10 5 6 11 9 7 5 2 1 4 5 3 3 4 5 9 14 9 6 7 4 1 4 6 5 3 3 3 2 2 7 7 7 9 7 1 4 7 9 13 15 12 5 2 1 2 5 6 6 7 6 5 6 8 6 5 7 9 9 12 19 21 22 20 11 6 7 11 13 16 18 18 20 20 22 25 26
9 10 6 6 4 2 7 12 12 10 9 7 4 5 11 13 11 5 1 3 4 3 1 5 6 6 10 12 8 10 11 7 4 4 4 7 6 4 3 1 1 3 4 4 4 2 1 4 5 7 10 13 13 9 6 6 6 7 8 9 8 7 7 9 10 10 10 10 10 14 20 22 21 20 17 10 10 13 14 15 16 16 17 16 16 20 24 25
13 11 8 9 6 6 11 12 11 10 6 5 4 2 7 12 11 4 1 3 6 5 3 7 9 6 7 8 7 11 15 12 10 9 8 9 7 4 3 3 2 2 2 3 2 1 2 4 4 5 6 11 12 10 11 11 11 12 13 11 8 8 9 10 11 12 12 10 13 17 18 19 21 21 15 9 11 14 13 13 17 19 19 18 18 22 26 26
19 18 20 16 7 3 9 7 7 8 4 3 5 4 6 9 9 5 2 2 2 5 6 10 12 8 4 3 4 8 11 8 9 14 17 14 11 8 5 4 6 5 3 3 3 2 2 2 0 3 6 10 9 11 13 12 11 13 14 13 12 11 12 12 11 11 11 12 14 15 13 15 18 16 11 7 7 9 9 11 17 22 24 22 22 25 28 27
24 22 24 19 6 2 6 6 6 8 4 2 4 5 5 6 5 5 3 2 4 1 7 14 14 8 5 4 5 9 12 9 11 20 22 16 13 12 8 7 11 9 5 4 3 2 3 1 1 2 5 5 6 10 10 7 7 9 11 15 17 15 13 12 10 11 14 13 11 11 13 13 10 7 10 11 7 5 8 12 16 22 25 24 24 25 26 25
Wind_Direction
243 243 242 242 243 246 245 244 243 242 240 240 240 239 240 241 242 243 244 245 244 240 235 234 235 233 232 232 233 234 236 240 243 240 238 240 242 241 242 244 245 247 248 246 243 239 224 215 220 221 220 219 220 227 226 224 202 179 129 142 208 194 199 189 184 202 186 259 241 137 144 186 251 250 223 232 221 216 218 213 213 217 216 218 221 222 220 209
241 241 241 242 241 242 242 242 241 241 240 240 239 237 237 239 240 241 242 242 243 241 237 233 233 233 231 230 230 233 236 240 246 245 241 242 243 239 239 242 243 244 247 245 240 237 227 216 214 216 212 207 206 210 211 205 193 185 125 154 218 202 201 197 195 212 210 264 283 300 316 222 246 255 213 227 221 202 208 216 219 225 220 219 220 220 224 214
240 238 239 241 240 239 239 239 239 240 240 239 238 235 235 236 238 240 240 240 240 240 238 233 230 231 230 228 228 230 236 243 249 247 243 242 243 239 237 239 239 241 243 242 236 232 229 218 216 216 206 202 203 199 198 189 191 203 167 182 237 210 217 224 219 230 236 259 291 302 306 258 264 256 208 212 214 201 210 216 216 225 223 219 221 221 222 215
238 237 237 239 239 238 236 237 237 238 239 238 237 235 233 233 235 237 238 238 238 237 238 235 229 228 228 226 224 226 235 251 253 249 246 242 240 239 237 236 236 236 237 238 232 227 227 219 220 222 209 203 201 196 194 184 192 202 170 202 229 181 218 241 232 242 251 262 277 287 295 278 275 251 209 195 184 232 230 223 220 230 229 218 219 221 219 215
236 235 236 237 237 237 235 235 235 235 237 236 235 234 232 232 232 235 237 236 236 235 235 234 229 225 225 223 220 220 223 252 263 256 254 246 239 238 236 233 233 231 231 234 228 220 220 218 219 220 211 203 188 190 201 194 191 189 198 222 217 169 205 244 237 250 255 260 268 272 279 276 273 235 211 195 188 232 234 231 229 235 237 227 225 221 217 217
237 235 235 234 234 235 234 234 234 233 235 234 233 233 232 232 231 232 235 234 234 233 232 232 227 222 221 219 216 211 208 220 316 281 255 246 238 235 235 232 230 228 225 226 222 214 213 211 210 207 202 199 192 187 195 198 196 206 229 231 228 215 227 244 239 252 259 259 262 259 277 276 262 242 224 207 215 233 238 242 238 237 239 235 231 223 219 219
237 236 233 231 231 233 233 233 233 230 231 231 230 232 231 231 230 231 233 233 231 230 228 228 225 219 217 217 215 211 216 225 213 68 62 241 229 224 228 231 227 224 220 219 215 207 204 202 202 199 191 200 205 199 201 201 202 210 230 233 237 232 233 244 246 252 259 262 263 262 282 278 246 256 242 222 231 237 240 251 249 243 241 237 231 227 226 226
237 235 233 229 229 230 230 231 231 229 230 228 227 230 230 230 230 230 231 232 229 227 225 225 222 216 214 214 213 215 227 229 223 202 47 37 234 214 217 224 223 221 216 216 214 206 202 199 199 196 191 211 200 198 203 205 212 209 221 232 234 234 237 247 250 252 258 262 266 263 267 264 254 260 261 249 250 245 240 247 252 252 245 239 234 230 229 229
238 235 233 230 226 227 229 229 229 228 229 226 224 227 229 229 229 229 230 230 227 225 222 222 219 213 213 216 214 221 232 231 225 227 242 283 315 222 214 217 217 218 215 214 214 208 204 201 198 193 194 216 202 203 200 201 230 203 213 229 229 232 236 245 248 248 254 259 263 258 258 264 261 262 264 261 261 253 243 245 247 249 247 242 237 233 232 232
238 234 233 231 226 225 226 227 227 227 228 225 222 225 227 228 228 228 229 229 226 223 220 219 217 212 213 215 214 224 233 233 230 229 234 248 271 281 229 221 216 214 213 212 211 209 207 205 201 196 206 219 203 210 202 199 230 202 213 230 236 238 236 239 241 243 247 256 255 236 247 264 261 240 252 260 260 250 241 240 242 243 245 244 241 237 235 236
237 234 232 231 228 225 223 224 225 225 226 224 221 223 225 226 227 228 228 228 225 221 219 217 215 213 214 216 215 224 230 233 235 234 234 237 247 265 263 234 221 215 213 212 212 211 210 208 201 196 210 228 199 214 218 215 234 218 216 234 249 249 246 241 238 239 236 254 251 231 255 268 247 211 242 248 252 250 240 237 239 240 244 245 243 240 237 239
236 234 230 229 229 224 220 221 222 224 225 222 220 221 223 224 225 227 226 225 223 220 217 216 216 215 215 220 224 225 225 229 235 238 236 231 236 247 255 246 229 220 217 215 214 214 211 209 202 196 201 191 171 199 244 228 226 228 215 239 276 268 257 238 234 240 225 237 250 224 279 270 206 228 242 237 243 248 240 236 237 238 242 243 243 241 240 241
236 233 229 228 228 223 218 219 220 221 222 221 218 218 221 222 223 225 225 224 220 217 216 214 216 217 216 225 229 227 225 225 228 226 221 220 227 236 240 241 234 224 221 221 221 218 213 211 207 204 206 199 170 168 254 221 204 217 206 211 276 278 270 223 217 230 209 225 228 181 259 255 221 239 237 226 233 235 232 233 237 239 240 241 241 241 242 243
235 231 227 227 225 222 218 217 217 219 220 219 216 216 219 220 221 223 223 221 217 215 213 213 217 217 219 228 230 231 231 228 225 215 203 207 216 228 234 233 230 225 223 222 224 223 217 213 211 212 218 226 207 186 347 48 177 192 200 210 226 242 276 206 191 183 182 231 204 172 243 251 246 249 231 220 225 225 231 236 237 240 241 240 240 240 242 244
235 230 226 226 224 221 217 214 214 216 218 216 213 214 216 218 220 220 221 218 213 211 209 211 215 213 219 233 232 232 234 233 228 218 204 202 210 222 230 227 223 224 225 223 222 223 221 214 210 213 222 224 212 172 45 1 317 158 206 227 207 218 272 294 195 181 189 228 189 178 240 254 258 259 237 227 224 224 234 240 240 240 242 241 241 241 243 245
234 231 226 225 224 220 214 213 214 213 213 212 210 212 215 216 217 218 218 214 210 207 205 208 211 208 211 235 232 231 232 233 231 223 214 209 208 216 228 225 218 220 223 223 221 220 220 213 206 208 209 206 193 146 106 290 258 214 211 225 209 213 237 289 258 200 199 201 182 202 231 235 258 260 242 230 227 226 231 241 242 240 243 242 243 245 245 246
233 229 225 223 224 220 214 212 213 210 210 208 206 209 212 213 216 217 214 210 207 202 202 206 206 205 214 232 229 228 228 229 230 224 219 219 210 213 226 222 211 213 214 216 217 216 213 204 196 204 201 179 161 142 168 217 223 214 212 231 219 205 212 203 280 224 206 207 208 219 226 223 250 260 247 232 227 225 228 239 243 242 243 244 244 246 246 246
231 226 223 221 222 221 213 210 210 207 207 204 203 206 208 210 213 212 208 205 201 198 201 200 197 200 222 229 225 221 224 226 227 224 221 219 216 217 226 223 210 202 199 200 205 202 195 191 183 187 186 179 174 173 204 221 218 204 199 227 231 218 213 185 213 210 188 215 228 214 224 227 246 259 251 246 238 227 231 240 245 246 247 248 247 247 249 249
229 225 221 218 220 218 210 207 207 203 201 200 200 201 202 203 205 206 205 202 192 188 198 187 185 193 213 224 224 219 219 222 221 220 218 215 216 219 226 228 209 187 181 174 191 188 174 171 184 191 193 196 198 198 211 218 193 196 205 222 224 224 237 198 225 218 175 204 232 219 230 222 233 251 246 243 241 233 237 244 247 248 249 250 250 251 253 253
228 224 218 215 217 215 207 204 204 199 196 196 193 192 192 189 192 202 197 198 196 192 199 192 194 201 204 226 226 217 214 213 209 207 211 213 212 213 218 218 198 182 180 164 177 183 175 175 196 200 205 204 204 206 214 218 124 177 197 220 213 212 240 209 227 254 183 198 233 221 233 229 226 244 245 240 237 231 234 240 243 247 249 249 250 254 255 258
225 220 216 214 215 211 206 204 200 195 193 194 192 187 187 183 181 189 181 193 205 199 200 205 203 206 210 272 223 204 198 189 196 201 205 208 207 207 204 199 191 188 189 176 160 170 181 197 205 205 210 205 202 204 211 224 229 206 160 201 206 206 239 215 208 243 182 192 241 224 241 244 230 243 251 242 233 225 227 231 236 242 247 248 249 254 257 262
222 220 215 214 213 208 206 203 198 192 190 194 193 190 195 193 192 195 182 180 207 202 204 212 207 208 216 244 221 192 188 176 192 200 196 195 199 201 192 190 197 191 190 183 158 166 192 211 208 209 210 201 201 202 205 219 226 226 185 182 215 206 233 258 232 231 171 196 251 244 252 255 240 241 250 245 235 232 232 233 236 239 244 246 246 250 255 258
221 219 215 213 211 206 204 201 194 190 190 193 194 195 200 198 195 195 182 161 193 203 208 211 206 208 212 225 212 188 184 178 185 193 192 190 192 196 191 185 197 196 195 195 185 187 196 210 213 212 199 195 208 203 202 216 223 227 213 203 241 199 164 258 267 236 205 206 235 274 278 266 248 241 250 250 244 241 240 240 241 240 241 246 248 250 253 256
216 214 213 213 208 203 201 196 188 188 192 194 196 197 199 196 193 186 171 138 73 202 210 214 211 210 208 211 206 189 184 191 192 190 192 190 189 196 198 186 194 204 202 204 207 210 210 211 211 201 182 200 211 202 198 209 221 225 219 217 227 168 174 240 246 210 258 260 228 309 298 274 249 238 247 249 244 241 238 238 241 241 241 246 249 250 251 254
212 211 212 211 205 200 197 190 184 188 192 195 196 196 196 194 189 181 161 108 23 199 210 215 217 220 210 208 204 190 188 202 200 196 195 194 189 187 199 198 198 210 201 201 211 225 229 206 178 185 198 206 207 204 200 201 216 226 219 216 208 177 185 264 18 90 303 275 245 148 263 274 252 226 235 235 233 234 229 227 233 237 239 242 245 247 248 251
210 210 209 207 203 196 189 183 184 187 189 194 195 191 192 190 182 175 158 80 307 190 187 201 209 217 208 205 194 182 197 222 203 201 198 197 195 188 192 196 196 215 196 192 213 222 230 199 166 190 207 205 201 210 206 196 212 231 214 204 201 195 209 234 299 196 197 251 271 163 226 269 276 229 230 221 232 237 224 221 228 232 236 237 241 246 246 248
208 208 208 206 200 189 181 179 184 185 187 193 193 186 185 183 174 168 158 20 242 167 153 182 193 200 200 197 183 171 199 202 192 203 196 194 197 195 200 190 185 212 185 168 223 194 189 201 192 198 204 202 202 211 202 187 205 235 192 168 189 207 215 214 227 241 230 285 300 257 221 278 276 251 208 199 235 248 233 226 227 227 232 236 240 245 246 247
205 206 207 203 195 187 182 179 181 184 189 191 186 180 176 175 172 162 158 227 178 140 146 176 186 191 184 178 180 180 199 174 176 208 197 193 193 189 208 209 199 206 183 173 216 197 175 193 201 200 200 202 208 213 194 182 209 231 142 150 187 201 196 178 201 236 272 4 266 251 75 281 274 256 170 186 228 250 243 227 222 223 226 233 238 244 247 247
202 202 202 197 190 185 183 180 181 184 188 187 180 176 172 170 167 148 157 223 134 120 147 165 178 181 164 163 182 191 192 170 166 183 192 198 195 180 195 218 219 213 195 193 211 218 183 196 203 200 197 208 212 208 174 181 210 183 143 148 163 167 166 172 189 200 157 236 242 231 158 238 273 264 181 182 220 238 247 231 217 219 221 228 234 241 247 248
200 199 198 192 183 179 178 179 183 183 182 181 178 173 166 164 156 136 205 202 112 147 142 154 170 164 157 154 184 192 186 162 145 141 173 191 187 171 156 181 146 85 201 216 216 227 253 204 204 203 206 208 200 184 179 190 186 140 140 130 121 151 181 182 161 161 193 233 235 217 185 196 265 268 212 201 221 225 243 238 209 215 220 227 232 237 246 248
198 196 193 185 178 176 174 174 180 182 178 177 174 167 157 151 149 185 191 154 94 147 132 151 164 150 157 165 178 188 183 155 147 144 161 172 160 152 136 158 123 99 223 340 215 228 247 216 195 199 206 192 128 170 197 191 162 144 145 138 143 167 192 183 164 194 214 231 223 209 193 186 237 261 214 199 222 212 229 235 201 202 219 225 230 234 243 248
196 194 189 182 176 177 175 173 177 178 177 174 168 161 149 131 179 202 174 124 144 175 159 165 170 159 170 177 174 177 176 165 157 158 169 165 161 182 186 186 167 190 227 206 196 215 223 220 187 183 196 181 158 178 190 144 153 169 160 152 177 194 183 198 199 208 217 227 224 203 188 187 233 256 247 225 234 218 237 248 212 207 215 223 229 234 242 248
193 189 184 179 175 175 176 174 174 173 172 169 162 154 152 165 183 190 180 166 191 182 157 163 172 168 170 175 175 173 172 166 148 156 168 163 170 194 201 204 147 167 220 189 199 202 208 221 202 183 183 176 179 180 171 165 169 187 183 169 190 195 199 210 203 217 221 230 249 187 177 199 240 259 257 243 245 243 247 255 243 228 225 230 235 238 243 248
188 183 177 175 174 175 176 172 171 171 166 162 157 151 170 187 180 185 186 188 228 148 139 152 157 159 169 178 175 165 166 176 159 155 159 160 175 197 197 202 177 119 81 157 208 206 215 228 198 192 176 169 184 194 182 176 178 193 194 191 201 197 216 225 206 222 222 228 311 158 172 195 210 237 233 196 227 246 244 242 240 239 236 239 243 242 244 247
183 177 171 170 172 175 175 171 169 169 163 157 155 163 180 186 181 185 183 173 180 127 123 143 148 154 173 178 166 166 171 174 159 158 164 172 190 199 192 198 189 177 167 189 212 197 222 255 199 196 189 171 186 198 179 171 186 197 187 202 218 211 220 240 223 212 208 203 202 191 210 209 225 255 264 190 217 288 245 234 229 233 234 237 243 242 243 246
172 169 168 167 170 172 174 172 169 167 162 155 158 180 186 194 171 173 169 144 148 134 127 141 151 160 171 159 165 176 174 115 157 164 180 188 198 189 183 195 186 184 195 202 252 133 205 272 251 195 195 187 191 191 177 173 178 177 190 207 221 211 210 235 254 129 137 222 204 190 237 272 281 273 261 240 246 242 206 231 234 239 239 241 245 245 246 248
161 163 165 167 169 170 172 171 168 166 162 157 178 184 185 200 153 136 135 124 130 138 138 148 162 169 167 157 173 173 154 129 168 176 172 183 198 178 179 203 188 187 197 201 228 332 178 282 323 191 204 206 195 189 187 187 178 154 197 202 180 67 149 210 243 208 187 233 222 197 223 219 234 262 258 233 238 228 205 208 227 237 240 244 247 246 248 250
156 158 160 168 172 168 167 169 168 164 160 160 187 183 165 182 167 126 134 131 134 145 151 160 162 174 174 166 167 166 160 160 171 181 175 177 210 183 177 195 195 194 196 193 209 276 150 259 286 189 211 221 193 186 200 205 191 162 223 202 162 159 212 190 216 217 197 228 231 217 224 210 210 241 259 225 222 219 206 203 213 223 229 238 242 243 246 249
155 153 154 169 172 164 164 167 165 160 157 173 188 187 148 129 110 144 143 138 138 151 163 174 155 161 175 166 155 156 166 173 167 175 185 177 212 191 181 187 199 199 191 183 194 216 145 231 259 194 195 234 183 184 196 205 205 198 345 242 152 195 225 203 209 231 200 222 234 227 225 213 214 234 245 240 223 203 201 209 214 215 221 230 236 240 245 248
151 146 152 169 169 163 163 163 160 157 163 187 180 175 132 121 105 157 148 142 138 150 166 175 158 151 158 159 153 154 168 177 169 176 193 183 194 214 195 190 184 181 180 178 188 187 132 215 239 256 57 124 212 210 199 199 205 204 207 205 182 196 255 248 220 231 228 226 232 237 237 230 223 232 240 246 241 210 201 213 218 219 226 232 236 241 246 249
148 134 154 167 168 163 158 155 155 159 182 186 170 137 153 136 124 153 147 134 120 51 127 154 155 152 154 156 157 161 168 175 177 182 192 190 197 224 211 198 179 148 160 179 195 193 167 199 224 237 231 214 230 244 218 192 188 203 208 204 200 197 202 233 225 218 227 234 223 236 252 249 236 233 231 237 234 209 204 213 216 218 222 229 236 240 245 249
145 101 154 164 167 163 155 146 155 159 166 175 151 109 135 127 125 153 149 111 106 76 69 122 145 149 155 162 163 166 168 173 182 186 198 202 198 207 215 194 170 149 151 180 198 188 156 138 225 239 245 239 230 208 190 102 86 12 246 225 236 218 200 214 225 209 206 233 236 245 262 258 244 230 224 227 226 208 207 210 212 219 221 225 234 238 243 249
123 97 149 159 162 162 158 139 146 148 117 148 124 93 112 116 123 154 160 143 132 133 94 99 167 161 158 162 158 164 168 168 183 188 191 199 199 211 197 167 154 149 154 176 185 173 137 123 219 246 265 274 259 191 250 64 88 310 266 236 259 249 225 223 230 216 198 219 224 235 251 252 250 249 246 256 266 246 225 218 218 227 229 230 235 240 247 257
103 101 139 158 162 164 162 153 166 160 148 129 116 96 98 94 133 159 166 171 152 148 139 146 192 174 161 157 151 164 165 157 191 196 173 174 192 206 177 162 155 156 174 182 172 173 177 169 194 224 249 264 253 219 234 223 153 219 243 232 243 255 256 260 259 246 233 211 210 228 245 251 263 274 271 273 274 273 254 236 230 234 241 242 243 247 254 263
110 99 125 158 163 164 160 147 170 162 149 139 128 139 122 62 103 161 159 158 145 142 141 160 179 131 127 126 122 155 162 124 175 184 145 154 179 177 172 169 166 168 183 181 170 170 185 185 187 209 223 231 237 233 234 218 183 202 226 226 231 235 241 254 250 226 229 209 206 224 241 253 264 274 281 277 265 267 264 254 247 243 246 250 252 255 260 265
115 98 119 149 159 161 123 94 145 148 151 150 138 147 143 112 60 130 137 148 154 131 111 139 168 119 124 141 130 154 172 52 100 167 159 163 169 124 171 172 174 177 175 175 171 167 189 227 201 217 228 232 244 251 248 121 142 181 210 213 218 220 226 236 233 227 231 224 223 225 234 256 263 259 259 257 246 254 260 257 251 246 248 255 259 261 264 267
106 78 125 127 137 151 94 97 138 137 151 158 155 158 146 129 111 101 99 151 172 154 99 55 169 159 157 155 142 152 161 77 68 161 162 159 142 85 139 155 171 177 169 175 177 163 139 228 212 223 237 247 264 269 241 110 150 187 203 199 195 199 218 236 241 248 255 242 237 227 221 244 255 251 249 243 231 256 264 260 259 256 254 257 259 263 264 262
113 98 114 130 127 166 148 145 148 133 140 150 143 151 149 141 149 154 110 75 165 173 107 99 194 207 171 158 144 144 150 115 82 166 155 149 134 108 123 110 145 163 158 173 177 162 169 225 210 219 237 251 264 258 191 180 200 199 203 211 211 197 199 231 247 271 280 258 268 279 258 251 252 254 256 244 203 229 249 256 264 266 264 262 262 263 262 258
109 109 105 113 97 84 108 121 131 129 132 130 107 155 162 158 161 162 98 109 159 220 135 144 187 203 174 166 146 147 162 163 170 190 171 157 155 142 140 133 127 149 142 152 163 155 233 226 213 213 236 252 255 251 235 228 246 249 234 231 230 224 228 238 248 260 261 257 271 280 275 271 267 264 265 249 216 227 242 252 259 262 262 262 261 260 260 261
132 133 128 103 75 93 107 111 128 129 120 119 122 162 167 160 161 157 53 147 169 194 181 157 164 165 169 171 158 171 182 175 166 176 170 160 165 171 165 164 154 124 112 137 140 83 203 228 218 192 235 254 246 243 242 235 242 251 248 244 241 242 248 247 246 250 252 251 252 255 263 272 270 267 273 267 233 232 241 248 252 256 259 261 260 261 263 267
144 144 138 117 72 89 118 117 133 132 130 148 147 158 161 161 163 146 78 1 154 175 181 160 150 140 136 155 190 194 184 169 166 167 165 165 168 169 177 177 159 148 134 142 135 134 187 254 358 164 230 251 236 227 234 234 240 249 252 246 234 231 236 235 230 229 228 232 246 252 253 258 262 267 279 271 221 218 236 244 246 250 253 255 255 256 260 262
138 137 134 120 89 68 114 116 135 139 150 154 141 151 150 151 160 147 128 17 12 73 155 150 143 135 138 158 209 198 187 200 191 166 162 169 165 157 157 153 148 147 147 142 123 135 172 162 13 208 230 253 234 214 212 217 233 242 242 232 224 223 230 237 240 232 222 218 229 242 243 252 263 261 256 252 221 209 245 245 243 247 247 247 249 252 255 255